Cloud_Cover
0 15 5 24 10 12 90 100 100 100 73 93 100 100 100 99 46 49 25 98 100 99 37 0 0 0 0 0 0 0 10 83 100 100 100 96 100 94 100 63 24 60 13 1
0 16 4 0 0 24 28 21 8 5 2 50 100 95 100 100 92 74 91 91 35 10 4 3 0 0 0 0 0 0 0 2 91 65 65 56 98 97 100 100 51 6 39 71
0 0 0 0 0 2 1 5 1 2 79 97 100 87 96 93 100 100 6 11 54 15 4 2 0 0 3 0 0 0 0 0 1 10 6 8 82 35 82 100 40 100 100 47
0 0 0 0 0 0 0 0 3 0 0 32 100 71 65 61 100 100 93 57 81 7 43 16 45 9 25 5 0 0 0 0 2 5 57 97 100 100 94 38 14 100 73 89
0 0 0 0 0 0 0 0 0 0 0 5 18 51 77 51 100 42 100 100 57 6 5 5 5 98 100 0 0 0 0 0 2 100 6 5 84 99 100 100 34 100 90 65
0 0 0 0 0 0 0 0 0 0 31 2 0 30 13 90 100 96 32 100 100 100 97 100 100 100 72 11 7 0 0 0 0 5 5 2 0 2 94 86 42 100 100 92
0 0 0 0 0 0 0 0 1 2 3 53 26 0 0 0 10 21 98 60 91 97 27 89 44 74 56 81 30 10 3 1 0 0 0 0 0 0 0 49 23 99 100 100
0 0 0 0 4 0 0 0 0 1 0 0 0 0 0 0 0 0 0 0 4 46 66 22 93 6 40 62 86 66 3 2 0 0 0 0 0 0 0 0 42 100 100 100
5 0 0 0 0 0 0 0 0 0 0 0 0 0 0 0 0 0 1 30 5 93 44 65 0 0 0 12 90 100 48 2 0 0 0 0 0 0 0 0 0 0 21 100
0 0 5 2 0 0 0 0 0 0 4 4 0 0 0 0 0 5 5 0 0 0 1 2 0 0 0 34 100 100 94 8 0 0 0 0 0 0 0 0 0 0 5 71
0 0 1 1 0 0 0 0 0 0 0 0 0 0 0 0 3 89 23 0 4 3 0 0 0 0 1 77 100 100 100 47 19 0 0 0 0 0 0 0 0 0 0 19
0 0 0 0 0 0 0 0 0 0 0 0 0 1 0 4 74 56 0 0 10 58 0 0 0 0 75 100 100 100 62 32 58 5 5 0 4 3 0 0 0 0 0 5
0 0 0 0 0 0 0 0 0 0 0 0 0 0 0 4 4 0 0 10 6 4 0 0 0 2 92 82 100 100 18 64 8 4 0 1 0 0 0 0 0 0 0 26
0 0 0 0 0 0 0 0 0 0 0 0 0 0 0 0 0 0 0 0 0 0 5 0 0 0 17 93 71 7 25 54 100 57 97 38 61 80 93 44 22 1 0 0
0 0 0 0 0 0 0 0 0 0 0 0 0 0 0 0 0 0 0 0 1 0 2 2 0 0 64 100 100 98 2 5 84 100 99 100 100 100 100 100 100 78 98 86
0 0 0 0 0 0 0 0 0 0 0 0 0 0 0 0 0 4 2 2 0 28 92 65 86 100 91 100 100 100 70 9 98 31 62 100 100 100 100 100 100 100 100 100
0 0 0 0 0 0 0 0 0 0 0 0 0 3 5 11 100 49 90 70 100 100 100 100 100 100 100 100 94 100 100 100 100 85 94 100 100 100 100 100 100 100 100 100
0 0 0 0 0 0 0 0 0 0 0 0 0 0 5 83 7 5 70 100 100 100 100 100 100 100 100 100 100 100 100 100 76 100 96 100 100 100 100 100 100 100 100 100
0 0 0 0 0 0 0 0 0 0 0 0 0 0 0 4 4 5 42 100 100 100 100 100 100 100 100 100 100 100 100 100 100 100 100 100 100 100 100 100 100 100 100 100
0 0 0 0 0 0 0 0 0 0 0 0 0 0 0 0 0 0 2 99 100 100 100 100 100 100 100 100 100 100 100 25 96 100 95 100 100 100 100 100 100 100 100 100
0 0 0 1 0 0 0 0 0 3 3 4 1 5 2 0 0 0 0 3 96 97 100 100 100 100 100 100 100 100 100 88 11 100 100 100 100 100 100 100 100 100 100 100
0 1 1 1 5 1 0 0 0 3 5 0 0 0 2 0 3 4 1 0 4 82 52 100 100 100 100 100 100 100 100 100 30 6 50 100 100 100 100 100 100 100 100 100
0 0 4 3 3 5 0 5 1 0 5 1 0 0 0 2 24 73 5 0 0 0 3 83 100 100 100 100 100 100 100 96 5 3 2 5 40 63 100 100 100 100 100 100
0 0 5 5 5 5 5 4 0 0 0 3 0 0 2 1 1 0 0 0 0 0 0 0 23 100 98 100 100 100 100 97 76 3 0 5 4 4 58 99 98 100 100 100
5 5 1 0 5 5 5 5 0 0 1 5 5 5 0 0 0 0 0 0 3 5 1 0 0 0 6 6 6 39 73 51 9 9 3 0 0 4 8 0 4 5 51 61
0 0 0 5 2 2 1 0 0 0 5 3 2 0 0 5 5 0 4 75 2 8 5 5 2 0 0 0 0 0 1 5 5 12 25 67 4 0 13 63 75 1 0 4